CLX50 OPKC-UCFM

Flight info

Callsign CLX50
Flight time N/A
Altitude 37000
Route BADUL1D/25R BADUL B466 NH Z302 PS P500 ATROL/N0496F380 P500 GERRY/N0496F370 P500 MOTMO/N0495F380 P500 FIRUZ/K0915F380 G500 POMIR/K0913F370 B496 ASMAN L142 OSH M34 GASTA JETTO1
Aircraft B48F/H-SDE3FGHIM1M2RWXY/LB1

Departure

Time N/A
Airport Jinnah International Airport (OPKC)

Arrival

Time 2026-05-05 14:00
Airport Manas International Airport (UCFM)
Time Latitude Longitude Altitude Speed Heading
2026-05-05 10:58 27.89840 69.02257 37783 ft 496 kts 11°
2026-05-05 10:58 27.96421 69.04772 37789 ft 496 kts 11°
2026-05-05 10:59 28.02957 69.07272 37784 ft 496 kts 11°
2026-05-05 10:59 28.09491 69.09776 37781 ft 495 kts 11°
2026-05-05 11:00 28.16019 69.12280 37792 ft 495 kts 11°
2026-05-05 11:00 28.22538 69.14784 37786 ft 494 kts 11°
2026-05-05 11:01 28.29051 69.17288 37794 ft 494 kts 11°
2026-05-05 11:01 28.35555 69.19793 37792 ft 494 kts 11°
2026-05-05 11:02 28.42061 69.22301 37795 ft 493 kts 11°
2026-05-05 11:02 28.48556 69.24809 37808 ft 493 kts 11°
2026-05-05 11:03 28.55047 69.27319 37809 ft 493 kts 11°
2026-05-05 11:03 28.61527 69.29884 37810 ft 493 kts 11°
2026-05-05 11:04 28.67999 69.32428 37816 ft 492 kts 11°
2026-05-05 11:04 28.74475 69.34986 37825 ft 492 kts 11°
2026-05-05 11:05 28.80942 69.37541 37836 ft 492 kts 11°
2026-05-05 11:05 28.87407 69.40099 37843 ft 492 kts 11°
2026-05-05 11:06 28.93866 69.42658 37855 ft 492 kts 11°
2026-05-05 11:06 29.00329 69.45222 37861 ft 491 kts 11°
2026-05-05 11:07 29.06779 69.47784 37865 ft 490 kts 11°
2026-05-05 11:07 29.13218 69.50344 37872 ft 491 kts 11°
2026-05-05 11:08 29.19659 69.52911 37877 ft 490 kts 11°
2026-05-05 11:08 29.25003 69.55041 37884 ft 489 kts 11°
2026-05-05 11:09 29.31430 69.57607 37888 ft 489 kts 11°
2026-05-05 11:09 29.37850 69.60174 37888 ft 488 kts 11°
2026-05-05 11:10 29.44257 69.62739 37886 ft 487 kts 11°
2026-05-05 11:10 29.50661 69.65305 37897 ft 488 kts 11°
2026-05-05 11:11 29.57061 69.67876 37902 ft 487 kts 11°
2026-05-05 11:11 29.63457 69.70444 37910 ft 487 kts 11°
2026-05-05 11:12 29.69852 69.73020 37914 ft 487 kts 11°
2026-05-05 11:12 29.76246 69.75596 37923 ft 487 kts 11°
2026-05-05 11:13 29.82634 69.78175 37923 ft 487 kts 11°
2026-05-05 11:13 29.89017 69.80754 37938 ft 486 kts 11°
2026-05-05 11:14 29.95398 69.83336 37938 ft 485 kts 11°
2026-05-05 11:14 30.01770 69.85918 37931 ft 485 kts 11°
2026-05-05 11:15 30.08134 69.88501 37927 ft 483 kts 11°
2026-05-05 11:15 30.14503 69.91088 37944 ft 484 kts 11°
2026-05-05 11:16 30.20858 69.93674 37953 ft 484 kts 11°
2026-05-05 11:16 30.27210 69.96263 37964 ft 484 kts 11°
2026-05-05 11:17 30.33569 69.98881 37958 ft 485 kts 11°
2026-05-05 11:17 30.39922 70.01490 37959 ft 485 kts 11°
2026-05-05 11:18 30.46265 70.04104 37962 ft 484 kts 11°
2026-05-05 11:18 30.52605 70.06716 37946 ft 484 kts 11°
2026-05-05 11:19 30.58937 70.09333 37946 ft 482 kts 12°
2026-05-05 11:19 30.65269 70.11947 37955 ft 484 kts 11°
2026-05-05 11:20 30.71614 70.14578 37973 ft 484 kts 11°
2026-05-05 11:20 30.77941 70.17201 37939 ft 481 kts 11°
2026-05-05 11:21 30.84260 70.19822 37944 ft 483 kts 11°
2026-05-05 11:21 30.90574 70.22451 37942 ft 482 kts 11°
2026-05-05 11:22 30.96940 70.25098 37939 ft 483 kts 11°
2026-05-05 11:22 31.03223 70.27721 37943 ft 482 kts 11°
2026-05-05 11:23 31.09542 70.30357 37941 ft 482 kts 11°
2026-05-05 11:23 31.15851 70.32997 37928 ft 482 kts 11°
2026-05-05 11:24 31.22206 70.35657 37920 ft 482 kts 11°
2026-05-05 11:24 31.28511 70.38302 37906 ft 481 kts 11°
2026-05-05 11:25 31.34806 70.40944 37907 ft 481 kts 11°
2026-05-05 11:25 31.41094 70.43589 37881 ft 480 kts 11°
2026-05-05 11:26 31.47372 70.46233 37883 ft 479 kts 11°
2026-05-05 11:26 31.53659 70.48817 37884 ft 477 kts 10°
2026-05-05 11:27 31.59943 70.51348 37874 ft 478 kts 11°
2026-05-05 11:27 31.66211 70.53920 37868 ft 477 kts 10°
2026-05-05 11:28 31.72480 70.56467 37869 ft 477 kts 11°
2026-05-05 11:28 31.78741 70.59032 37860 ft 477 kts 10°
2026-05-05 11:29 31.85003 70.61591 37869 ft 476 kts 10°
2026-05-05 11:29 31.91253 70.64154 37871 ft 476 kts 10°
2026-05-05 11:30 31.97504 70.66719 37863 ft 476 kts 11°
2026-05-05 11:30 32.03756 70.69289 37870 ft 476 kts 11°
2026-05-05 11:31 32.10007 70.71862 37869 ft 476 kts 11°
2026-05-05 11:31 32.16255 70.74437 37872 ft 476 kts 11°
2026-05-05 11:32 32.22517 70.77021 37861 ft 478 kts 11°
2026-05-05 11:32 32.28795 70.79617 37871 ft 479 kts 11°
2026-05-05 11:33 32.35055 70.82211 37874 ft 475 kts 11°
2026-05-05 11:33 32.41317 70.84804 37885 ft 477 kts 11°
2026-05-05 11:34 32.47570 70.87403 37887 ft 476 kts 11°
2026-05-05 11:34 32.53825 70.90002 37889 ft 476 kts 11°
2026-05-05 11:35 32.60080 70.92608 37886 ft 477 kts 11°
2026-05-05 11:35 32.66339 70.95219 37887 ft 476 kts 11°
2026-05-05 11:36 32.72601 70.97833 37895 ft 478 kts 11°
2026-05-05 11:36 32.78875 71.00459 37899 ft 478 kts 11°
2026-05-05 11:37 32.85154 71.03088 37896 ft 479 kts 11°
2026-05-05 11:37 32.91439 71.05726 37901 ft 479 kts 11°
2026-05-05 11:38 32.97719 71.08365 37906 ft 479 kts 11°
2026-05-05 11:38 33.04004 71.11069 37912 ft 480 kts 12°
2026-05-05 11:39 33.10279 71.13767 37919 ft 479 kts 12°
2026-05-05 11:39 33.16561 71.16470 37924 ft 480 kts 12°
2026-05-05 11:40 33.22841 71.19182 37925 ft 480 kts 12°
2026-05-05 11:40 33.29116 71.21889 37935 ft 480 kts 12°
2026-05-05 11:41 33.35391 71.24605 37941 ft 479 kts 12°
2026-05-05 11:41 33.41661 71.27317 37944 ft 478 kts 12°
2026-05-05 11:42 33.47921 71.30031 37940 ft 478 kts 12°
2026-05-05 11:42 33.54192 71.32736 37932 ft 479 kts 12°
2026-05-05 11:43 33.60457 71.35445 37938 ft 480 kts 12°
2026-05-05 11:43 33.66731 71.38164 37929 ft 480 kts 12°
2026-05-05 11:44 33.73007 71.40885 37933 ft 480 kts 13°
2026-05-05 11:44 33.79267 71.43608 37931 ft 478 kts 12°
2026-05-05 11:45 33.85520 71.46325 37944 ft 477 kts 13°
2026-05-05 11:45 33.91768 71.49049 37945 ft 477 kts 13°
2026-05-05 11:46 33.96970 71.51249 37958 ft 473 kts
2026-05-05 11:46 34.04464 71.52653 37951 ft 465 kts
2026-05-05 11:47 34.09811 71.53433 37947 ft 466 kts
2026-05-05 11:47 34.16252 71.54368 37937 ft 466 kts
2026-05-05 11:48 34.25924 71.55779 37920 ft 467 kts
2026-05-05 11:48 34.32377 71.56722 37919 ft 467 kts
2026-05-05 11:49 34.38833 71.57665 37924 ft 468 kts
2026-05-05 11:49 34.45305 71.58614 37925 ft 468 kts
2026-05-05 11:50 34.51773 71.59563 37926 ft 468 kts
2026-05-05 11:50 34.58245 71.60514 37941 ft 468 kts
2026-05-05 11:51 34.64695 71.61465 37948 ft 466 kts
2026-05-05 11:51 34.71139 71.62413 37969 ft 466 kts
2026-05-05 11:52 34.77582 71.63365 37961 ft 467 kts
2026-05-05 11:52 34.84015 71.64318 37983 ft 466 kts
2026-05-05 11:53 34.90462 71.65271 37992 ft 466 kts
2026-05-05 11:53 34.96898 71.66227 38010 ft 465 kts
2026-05-05 11:54 35.03323 71.67182 38012 ft 465 kts
2026-05-05 11:54 35.09745 71.68137 38028 ft 464 kts
2026-05-05 11:55 35.16157 71.69093 38046 ft 464 kts
2026-05-05 11:55 35.22573 71.70049 38050 ft 466 kts
2026-05-05 11:56 35.29010 71.71014 38086 ft 465 kts
2026-05-05 11:56 35.35423 71.71973 38074 ft 466 kts
2026-05-05 11:57 35.41863 71.72939 38074 ft 467 kts
2026-05-05 11:57 35.48336 71.73912 38082 ft 470 kts
2026-05-05 11:58 35.54839 71.74890 38081 ft 472 kts
2026-05-05 11:58 35.61359 71.75873 38079 ft 472 kts
2026-05-05 11:59 35.67879 71.76857 38072 ft 472 kts
2026-05-05 11:59 35.74407 71.77847 38068 ft 472 kts
2026-05-05 12:00 35.80938 71.78835 38054 ft 473 kts
2026-05-05 12:00 35.87430 71.78912 38084 ft 464 kts 347°
2026-05-05 12:01 35.93525 71.76563 38087 ft 459 kts 331°
2026-05-05 12:01 35.99102 71.72758 38068 ft 457 kts 330°
2026-05-05 12:02 36.04653 71.68918 38106 ft 458 kts 329°
2026-05-05 12:02 36.10208 71.65063 38129 ft 458 kts 329°
2026-05-05 12:03 36.15809 71.61335 38168 ft 456 kts 336°
2026-05-05 12:03 36.22015 71.59398 38210 ft 465 kts 352°
2026-05-05 12:04 36.28499 71.59888 38191 ft 470 kts
2026-05-05 12:04 36.34984 71.61079 38193 ft 472 kts
2026-05-05 12:05 36.41461 71.62308 38230 ft 470 kts
2026-05-05 12:05 36.47961 71.63258 38240 ft 467 kts 355°
2026-05-05 12:06 36.54459 71.63170 38238 ft 467 kts 356°
2026-05-05 12:06 36.60964 71.63082 38243 ft 468 kts 356°
2026-05-05 12:07 36.67466 71.62994 38241 ft 468 kts 356°
2026-05-05 12:07 36.73976 71.63010 38240 ft 468 kts 357°
2026-05-05 12:08 36.80486 71.63024 38242 ft 468 kts 356°
2026-05-05 12:08 36.87011 71.63028 38235 ft 469 kts 357°
2026-05-05 12:09 36.93527 71.63047 38235 ft 468 kts 356°
2026-05-05 12:09 37.00030 71.63051 38271 ft 466 kts 356°
2026-05-05 12:10 37.06540 71.63065 38247 ft 468 kts 357°
2026-05-05 12:10 37.13047 71.63073 38241 ft 467 kts 357°
2026-05-05 12:11 37.19558 71.63085 38227 ft 467 kts 356°
2026-05-05 12:11 37.26077 71.63095 38247 ft 468 kts 357°
2026-05-05 12:12 37.32596 71.63106 38250 ft 469 kts 357°
2026-05-05 12:12 37.39121 71.63117 38249 ft 470 kts 357°
2026-05-05 12:13 37.45651 71.63128 38246 ft 469 kts 357°
2026-05-05 12:13 37.52175 71.63138 38252 ft 469 kts 357°
2026-05-05 12:14 37.58704 71.63147 38243 ft 469 kts 357°
2026-05-05 12:14 37.65236 71.63161 38243 ft 469 kts 357°
2026-05-05 12:15 37.71779 71.63170 38241 ft 471 kts 357°
2026-05-05 12:15 37.78327 71.63182 38236 ft 471 kts 357°
2026-05-05 12:16 37.84873 71.63193 38227 ft 470 kts 357°
2026-05-05 12:16 37.91433 71.63202 38242 ft 472 kts 357°
2026-05-05 12:17 37.97987 71.63215 38212 ft 470 kts 357°
2026-05-05 12:17 38.04526 71.63224 38232 ft 471 kts 357°
2026-05-05 12:18 38.11076 71.63236 38227 ft 471 kts 357°
2026-05-05 12:18 38.17631 71.63247 38229 ft 471 kts 357°
2026-05-05 12:19 38.24177 71.63260 38268 ft 469 kts 357°
2026-05-05 12:19 38.30733 71.63273 38237 ft 471 kts 357°
2026-05-05 12:20 38.37289 71.63287 38254 ft 471 kts 357°
2026-05-05 12:20 38.43857 71.63303 38270 ft 472 kts 357°
2026-05-05 12:21 38.50432 71.63315 38285 ft 472 kts 357°
2026-05-05 12:21 38.56981 71.63526 38293 ft 472 kts
2026-05-05 12:22 38.63342 71.65956 38300 ft 482 kts 19°
2026-05-05 12:22 38.69558 71.69218 38311 ft 484 kts 19°
2026-05-05 12:23 38.75787 71.72496 38306 ft 484 kts 19°
2026-05-05 12:23 38.82025 71.75781 38311 ft 484 kts 19°
2026-05-05 12:24 38.88248 71.79068 38318 ft 484 kts 19°
2026-05-05 12:24 38.94469 71.82357 38313 ft 482 kts 19°
2026-05-05 12:25 39.00675 71.85646 38295 ft 483 kts 19°
2026-05-05 12:25 39.06893 71.88949 38287 ft 484 kts 19°
2026-05-05 12:26 39.12064 71.91697 38279 ft 484 kts 19°
2026-05-05 12:26 39.18287 71.95015 38256 ft 482 kts 19°
2026-05-05 12:27 39.24497 71.98326 38244 ft 485 kts 20°
2026-05-05 12:27 39.30723 72.01661 38218 ft 484 kts 19°
2026-05-05 12:28 39.36933 72.05020 38217 ft 485 kts 22°
2026-05-05 12:28 39.43057 72.08680 38202 ft 485 kts 21°
2026-05-05 12:29 39.49193 72.12336 38203 ft 485 kts 22°
2026-05-05 12:29 39.55360 72.16038 38187 ft 485 kts 21°
2026-05-05 12:30 39.61489 72.19707 38186 ft 485 kts 22°
2026-05-05 12:30 39.67572 72.23369 38198 ft 484 kts 22°
2026-05-05 12:31 39.73722 72.27069 38073 ft 484 kts 22°
2026-05-05 12:31 39.76784 72.28917 37892 ft 485 kts 22°
2026-05-05 12:31 39.79841 72.30763 37477 ft 487 kts 22°
2026-05-05 12:32 39.82892 72.32608 37246 ft 482 kts 22°
2026-05-05 12:32 39.85930 72.34446 36871 ft 481 kts 22°
2026-05-05 12:32 39.88965 72.36282 36537 ft 480 kts 22°
2026-05-05 12:32 39.91994 72.38118 36198 ft 481 kts 22°
2026-05-05 12:33 39.95031 72.39960 35865 ft 482 kts 22°
2026-05-05 12:33 39.98071 72.41808 35537 ft 482 kts 22°
2026-05-05 12:33 40.01112 72.43656 35221 ft 483 kts 22°
2026-05-05 12:33 40.04167 72.45515 34884 ft 484 kts 22°
2026-05-05 12:34 40.07217 72.47372 34558 ft 484 kts 23°
2026-05-05 12:34 40.10268 72.49233 34248 ft 485 kts 23°
2026-05-05 12:34 40.13332 72.51103 33880 ft 486 kts 23°
2026-05-05 12:34 40.16360 72.52953 33514 ft 487 kts 23°
2026-05-05 12:35 40.19475 72.54858 33142 ft 489 kts 23°
2026-05-05 12:35 40.22562 72.56748 32781 ft 491 kts 23°
2026-05-05 12:35 40.25664 72.58649 32423 ft 492 kts 24°
2026-05-05 12:35 40.28759 72.60547 32062 ft 490 kts 24°
2026-05-05 12:36 40.31842 72.62441 31710 ft 488 kts 24°
2026-05-05 12:36 40.34910 72.64327 31345 ft 487 kts 24°
2026-05-05 12:36 40.37971 72.66210 31001 ft 485 kts 24°
2026-05-05 12:36 40.41022 72.68089 30655 ft 484 kts 24°
2026-05-05 12:37 40.44064 72.69965 30312 ft 483 kts 24°
2026-05-05 12:37 40.47101 72.71839 29941 ft 481 kts 24°
2026-05-05 12:37 40.50124 72.73706 29551 ft 478 kts 24°
2026-05-05 12:37 40.53126 72.75563 29165 ft 475 kts 24°
2026-05-05 12:38 40.56103 72.77406 28778 ft 472 kts 24°
2026-05-05 12:38 40.59061 72.79239 28403 ft 469 kts 24°
2026-05-05 12:38 40.62072 72.80878 28050 ft 466 kts 18°
2026-05-05 12:38 40.65134 72.82253 27682 ft 465 kts 17°
2026-05-05 12:39 40.68198 72.83589 27324 ft 463 kts 18°
2026-05-05 12:39 40.71242 72.84945 26969 ft 461 kts 18°
2026-05-05 12:39 40.74271 72.86323 26619 ft 459 kts 18°
2026-05-05 12:39 40.77287 72.87687 26270 ft 457 kts 18°
2026-05-05 12:40 40.80290 72.89029 25928 ft 455 kts 18°
2026-05-05 12:40 40.83282 72.90368 25590 ft 453 kts 18°
2026-05-05 12:40 40.86258 72.91712 25252 ft 451 kts 18°
2026-05-05 12:40 40.89221 72.93054 24924 ft 449 kts 18°
2026-05-05 12:41 40.92175 72.94386 24598 ft 448 kts 18°
2026-05-05 12:41 40.95115 72.95712 24277 ft 446 kts 18°
2026-05-05 12:41 40.98045 72.97037 23965 ft 444 kts 18°
2026-05-05 12:41 41.00962 72.98359 23645 ft 442 kts 18°
2026-05-05 12:42 41.03868 72.99675 23271 ft 440 kts 18°
2026-05-05 12:42 41.06756 73.00985 22907 ft 437 kts 18°
2026-05-05 12:42 41.09625 73.02286 22543 ft 435 kts 18°
2026-05-05 12:42 41.12482 73.03584 22186 ft 433 kts 18°
2026-05-05 12:43 41.15319 73.04876 21833 ft 430 kts 18°
2026-05-05 12:43 41.18149 73.06165 21488 ft 428 kts 18°
2026-05-05 12:43 41.20960 73.07445 21136 ft 426 kts 18°
2026-05-05 12:43 41.23752 73.08717 20794 ft 424 kts 18°
2026-05-05 12:44 41.26533 73.09986 20462 ft 422 kts 18°
2026-05-05 12:44 41.29304 73.11253 20127 ft 420 kts 18°
2026-05-05 12:44 41.32061 73.12513 19802 ft 418 kts 18°
2026-05-05 12:44 41.34801 73.13768 19472 ft 416 kts 18°
2026-05-05 12:45 41.37529 73.15017 19145 ft 413 kts 18°
2026-05-05 12:45 41.40243 73.16261 18823 ft 412 kts 18°
2026-05-05 12:45 41.42943 73.17500 18503 ft 410 kts 18°
2026-05-05 12:45 41.45635 73.18736 18140 ft 408 kts 18°
2026-05-05 12:46 41.48312 73.19967 17766 ft 405 kts 18°
2026-05-05 12:46 41.50972 73.21192 17405 ft 404 kts 18°
2026-05-05 12:46 41.53619 73.22412 17043 ft 402 kts 18°
2026-05-05 12:46 41.56257 73.23628 16689 ft 400 kts 18°
2026-05-05 12:47 41.58880 73.24835 16338 ft 398 kts 18°
2026-05-05 12:47 41.61488 73.26039 15993 ft 395 kts 18°
2026-05-05 12:47 41.64084 73.27240 15649 ft 393 kts 18°
2026-05-05 12:47 41.66663 73.28434 15312 ft 392 kts 18°
2026-05-05 12:48 41.69233 73.29623 14977 ft 390 kts 18°
2026-05-05 12:48 41.71791 73.30807 14647 ft 388 kts 18°
2026-05-05 12:48 41.74336 73.31987 14320 ft 386 kts 18°
2026-05-05 12:48 41.76859 73.33158 14168 ft 382 kts 18°
2026-05-05 12:49 41.79390 73.34334 14175 ft 386 kts 18°
2026-05-05 12:49 41.81921 73.35509 14176 ft 385 kts 18°
2026-05-05 12:49 41.84452 73.36687 14180 ft 385 kts 18°
2026-05-05 12:49 41.86986 73.37867 14173 ft 386 kts 18°
2026-05-05 12:50 41.89519 73.39047 14174 ft 385 kts 18°
2026-05-05 12:50 41.92048 73.40226 14176 ft 385 kts 18°
2026-05-05 12:50 41.94577 73.41406 14175 ft 385 kts 18°
2026-05-05 12:50 41.97114 73.42593 14177 ft 386 kts 18°
2026-05-05 12:51 41.99649 73.43778 14180 ft 385 kts 18°
2026-05-05 12:51 42.02180 73.44962 14185 ft 385 kts 18°
2026-05-05 12:51 42.04709 73.46146 14189 ft 385 kts 18°
2026-05-05 12:51 42.07238 73.47332 14190 ft 385 kts 18°
2026-05-05 12:52 42.09764 73.48517 14197 ft 385 kts 18°
2026-05-05 12:52 42.12284 73.49756 14204 ft 385 kts 24°
2026-05-05 12:52 42.14532 73.51712 14213 ft 388 kts 42°
2026-05-05 12:52 42.16259 73.54486 14215 ft 389 kts 59°
2026-05-05 12:53 42.17309 73.57836 14217 ft 389 kts 76°
2026-05-05 12:53 42.17583 73.61454 14217 ft 389 kts 94°
2026-05-05 12:53 42.17055 73.65015 14216 ft 388 kts 111°
2026-05-05 12:53 42.15780 73.68193 14214 ft 387 kts 128°
2026-05-05 12:54 42.11486 73.72363 14208 ft 385 kts 163°
2026-05-05 12:54 42.08862 73.72979 14205 ft 384 kts 180°
2026-05-05 12:54 42.06231 73.72515 14203 ft 382 kts 198°
2026-05-05 12:55 42.03802 73.71099 14186 ft 381 kts 209°
2026-05-05 12:55 42.01508 73.69309 14185 ft 381 kts 211°
2026-05-05 12:55 41.99208 73.67552 14190 ft 380 kts 208°
2026-05-05 12:55 41.96793 73.66095 14179 ft 381 kts 200°
2026-05-05 12:56 41.94331 73.64801 14193 ft 380 kts 210°
2026-05-05 12:56 41.92225 73.62690 14188 ft 378 kts 227°
2026-05-05 12:56 41.90701 73.59837 14192 ft 377 kts 245°
2026-05-05 12:56 41.89896 73.56510 14194 ft 376 kts 262°
2026-05-05 12:57 41.89880 73.53019 14193 ft 376 kts 279°
2026-05-05 12:57 41.90657 73.49680 14189 ft 376 kts 297°
2026-05-05 12:57 41.92158 73.46809 14195 ft 378 kts 314°
2026-05-05 12:57 41.94242 73.44673 14196 ft 380 kts 332°
2026-05-05 12:58 41.96725 73.43470 14189 ft 382 kts 349°
2026-05-05 12:58 41.99375 73.43322 14225 ft 383 kts
2026-05-05 12:58 42.01955 73.44252 14439 ft 388 kts 21°
2026-05-05 12:58 42.04419 73.45719 14634 ft 388 kts 24°
2026-05-05 12:59 42.06874 73.47242 14817 ft 389 kts 22°
2026-05-05 12:59 42.09413 73.48509 15003 ft 389 kts 16°
2026-05-05 12:59 42.12000 73.49598 15182 ft 391 kts 21°
2026-05-05 13:00 42.16245 73.54070 15602 ft 396 kts 55°
2026-05-05 13:00 42.17493 73.57371 15789 ft 397 kts 72°
2026-05-05 13:01 42.16684 73.68222 16216 ft 400 kts 121°
2026-05-05 13:01 42.14987 73.71159 16213 ft 398 kts 137°
2026-05-05 13:01 42.12746 73.73330 16210 ft 397 kts 154°
2026-05-05 13:01 42.10151 73.74554 16209 ft 396 kts 171°
2026-05-05 13:02 42.07415 73.74739 16206 ft 394 kts 187°
2026-05-05 13:02 42.04764 73.73872 16200 ft 392 kts 204°
2026-05-05 13:02 42.02391 73.72088 16189 ft 392 kts 215°
2026-05-05 13:02 42.00191 73.69938 16185 ft 391 kts 217°
2026-05-05 13:03 41.97981 73.67805 16188 ft 391 kts 215°
2026-05-05 13:03 41.95672 73.65858 16187 ft 391 kts 212°
2026-05-05 13:03 41.93417 73.63813 16182 ft 391 kts 219°
2026-05-05 13:03 41.91502 73.61254 16190 ft 390 kts 235°
2026-05-05 13:04 41.90220 73.58071 16192 ft 388 kts 251°
2026-05-05 13:04 41.89680 73.54537 16193 ft 388 kts 268°
2026-05-05 13:04 41.89924 73.50949 16191 ft 388 kts 284°
2026-05-05 13:04 41.90932 73.47606 16194 ft 388 kts 301°
2026-05-05 13:05 41.91980 73.45668 16196 ft 389 kts 312°
2026-05-05 13:05 41.94851 73.42733 16184 ft 391 kts 334°
2026-05-05 13:05 41.96538 73.41884 16196 ft 393 kts 345°
2026-05-05 13:05 42.00171 73.41533 16201 ft 395 kts
2026-05-05 13:06 42.01951 73.42058 16202 ft 396 kts 18°
2026-05-05 13:06 42.04446 73.43637 16196 ft 398 kts 30°
2026-05-05 13:06 42.06776 73.45650 16195 ft 398 kts 33°
2026-05-05 13:06 42.09098 73.47670 16202 ft 398 kts 30°
2026-05-05 13:07 42.11508 73.49493 16212 ft 397 kts 27°
2026-05-05 13:07 42.13878 73.51407 16206 ft 398 kts 36°
2026-05-05 13:07 42.15863 73.54002 16218 ft 400 kts 53°
2026-05-05 13:07 42.17230 73.57249 16221 ft 400 kts 69°
2026-05-05 13:08 42.17869 73.60887 16218 ft 400 kts 85°
2026-05-05 13:08 42.17725 73.64626 16221 ft 400 kts 102°
2026-05-05 13:08 42.16813 73.68149 16215 ft 399 kts 118°
2026-05-05 13:08 42.15206 73.71179 16211 ft 398 kts 135°
2026-05-05 13:09 42.13034 73.73475 16210 ft 397 kts 152°
2026-05-05 13:09 42.10477 73.74848 16207 ft 396 kts 168°
2026-05-05 13:09 42.07746 73.75193 16205 ft 395 kts 185°
2026-05-05 13:09 42.05066 73.74485 16197 ft 393 kts 201°
2026-05-05 13:10 42.02647 73.72804 16198 ft 392 kts 215°
2026-05-05 13:10 42.00456 73.70623 16186 ft 391 kts 218°
2026-05-05 13:10 41.98290 73.68409 16186 ft 391 kts 217°
2026-05-05 13:10 41.96040 73.66354 16185 ft 391 kts 213°
2026-05-05 13:11 41.93799 73.64280 16183 ft 391 kts 219°
2026-05-05 13:11 41.91816 73.61797 16189 ft 390 kts 232°
2026-05-05 13:11 41.90428 73.58691 16187 ft 389 kts 249°
2026-05-05 13:11 41.89768 73.55198 16191 ft 388 kts 265°
2026-05-05 13:12 41.89888 73.51595 16190 ft 388 kts 282°
2026-05-05 13:12 41.90779 73.48193 16191 ft 387 kts 298°
2026-05-05 13:12 41.92368 73.45275 16191 ft 389 kts 315°
2026-05-05 13:12 41.94524 73.43082 16182 ft 391 kts 331°
2026-05-05 13:13 41.97074 73.41804 16189 ft 393 kts 348°
2026-05-05 13:13 41.99799 73.41553 16191 ft 395 kts
2026-05-05 13:13 42.02478 73.42355 16195 ft 397 kts 21°
2026-05-05 13:13 42.04931 73.44059 16194 ft 398 kts 31°
2026-05-05 13:14 42.07252 73.46086 16199 ft 397 kts 32°
2026-05-05 13:14 42.09590 73.48075 16202 ft 398 kts 30°
2026-05-05 13:14 42.12013 73.49855 16204 ft 397 kts 28°
2026-05-05 13:14 42.14334 73.51877 16219 ft 398 kts 40°
2026-05-05 13:15 42.16203 73.54626 16216 ft 400 kts 56°
2026-05-05 13:15 42.17426 73.57975 16216 ft 400 kts 72°
2026-05-05 13:15 42.17906 73.61657 16217 ft 400 kts 89°
2026-05-05 13:15 42.17603 73.65370 16217 ft 400 kts 105°
2026-05-05 13:16 42.16542 73.68816 16211 ft 399 kts 122°
2026-05-05 13:16 42.14809 73.71713 16209 ft 398 kts 139°
2026-05-05 13:16 42.12544 73.73831 16210 ft 397 kts 155°
2026-05-05 13:16 42.09933 73.74997 16204 ft 396 kts 172°
2026-05-05 13:17 42.07194 73.75119 16200 ft 395 kts 188°
2026-05-05 13:17 42.04554 73.74194 16197 ft 393 kts 205°
2026-05-05 13:17 42.02199 73.72349 16191 ft 392 kts 216°
2026-05-05 13:17 42.00028 73.70143 16189 ft 391 kts 218°
2026-05-05 13:18 41.97850 73.67956 16187 ft 391 kts 216°
2026-05-05 13:18 41.95576 73.65945 16183 ft 391 kts 213°
2026-05-05 13:18 41.93367 73.63816 16178 ft 391 kts 220°
2026-05-05 13:18 41.91482 73.61217 16184 ft 390 kts 236°
2026-05-05 13:19 41.90231 73.58010 16189 ft 389 kts 252°
2026-05-05 13:19 41.89724 73.54461 16187 ft 388 kts 269°
2026-05-05 13:19 41.90003 73.50871 16187 ft 388 kts 285°
2026-05-05 13:19 41.91041 73.47540 16187 ft 388 kts 302°
2026-05-05 13:20 41.92754 73.44750 16184 ft 390 kts 318°
2026-05-05 13:20 41.95006 73.42725 16180 ft 392 kts 335°
2026-05-05 13:20 41.97608 73.41648 16180 ft 394 kts 351°
2026-05-05 13:20 42.00341 73.41613 16190 ft 395 kts
2026-05-05 13:21 42.02983 73.42629 16195 ft 397 kts 24°
2026-05-05 13:21 42.05393 73.44453 16195 ft 398 kts 32°
2026-05-05 13:21 42.07707 73.46492 16198 ft 397 kts 32°
2026-05-05 13:21 42.10057 73.48447 16198 ft 398 kts 28°
2026-05-05 13:22 42.12486 73.50214 16196 ft 397 kts 30°
2026-05-05 13:22 42.14742 73.52351 16214 ft 398 kts 43°
2026-05-05 13:22 42.16496 73.55237 16213 ft 399 kts 59°
2026-05-05 13:22 42.17579 73.58668 16216 ft 400 kts 76°
2026-05-05 13:23 42.17908 73.62381 16214 ft 400 kts 92°
2026-05-05 13:23 42.17453 73.66064 16213 ft 399 kts 109°
2026-05-05 13:23 42.16253 73.69426 16207 ft 399 kts 125°
2026-05-05 13:23 42.14406 73.72191 16208 ft 398 kts 141°
2026-05-05 13:24 42.12060 73.74143 16203 ft 397 kts 158°
2026-05-05 13:24 42.09409 73.75121 16201 ft 396 kts 174°
2026-05-05 13:24 42.06672 73.75051 16199 ft 394 kts 191°
2026-05-05 13:24 42.04069 73.73942 16195 ft 393 kts 207°
2026-05-05 13:25 42.01771 73.71987 16185 ft 392 kts 217°
2026-05-05 13:25 41.99611 73.69759 16183 ft 391 kts 218°
2026-05-05 13:25 41.97417 73.67584 16178 ft 391 kts 215°
2026-05-05 13:25 41.95140 73.65587 16178 ft 391 kts 215°
2026-05-05 13:26 41.92971 73.63384 16177 ft 390 kts 222°
2026-05-05 13:26 41.91193 73.60653 16182 ft 390 kts 239°
2026-05-05 13:26 41.90080 73.57358 16183 ft 389 kts 255°
2026-05-05 13:26 41.89720 73.53777 16183 ft 388 kts 272°
2026-05-05 13:27 41.90144 73.50213 16186 ft 388 kts 288°
2026-05-05 13:27 41.91315 73.46964 16186 ft 389 kts 305°
2026-05-05 13:27 41.93138 73.44284 16109 ft 392 kts 321°
2026-05-05 13:27 41.95457 73.42397 15952 ft 390 kts 337°
2026-05-05 13:28 41.98083 73.41484 15808 ft 392 kts 354°
2026-05-05 13:28 42.00801 73.41615 15651 ft 393 kts 11°
2026-05-05 13:28 42.03388 73.42789 15513 ft 394 kts 26°
2026-05-05 13:28 42.05735 73.44682 15354 ft 393 kts 33°
2026-05-05 13:29 42.08006 73.46724 15171 ft 392 kts 32°
2026-05-05 13:29 42.10321 73.48644 14997 ft 391 kts 28°
2026-05-05 13:29 42.12767 73.50210 14820 ft 389 kts 19°
2026-05-05 13:29 42.15343 73.51293 14655 ft 387 kts 14°
2026-05-05 13:30 42.17947 73.52206 14470 ft 386 kts 14°
2026-05-05 13:30 42.20515 73.53240 14284 ft 385 kts 18°
2026-05-05 13:30 42.23037 73.54457 14207 ft 383 kts 19°
2026-05-05 13:30 42.25558 73.55651 14214 ft 384 kts 18°
2026-05-05 13:31 42.28102 73.56757 14206 ft 384 kts 17°
2026-05-05 13:31 42.30646 73.57858 14204 ft 385 kts 17°
2026-05-05 13:31 42.33182 73.59003 14207 ft 384 kts 18°
2026-05-05 13:31 42.35715 73.60158 14206 ft 385 kts 18°
2026-05-05 13:32 42.38253 73.61296 14205 ft 385 kts 18°
2026-05-05 13:32 42.40776 73.62503 14195 ft 385 kts 25°
2026-05-05 13:32 42.43009 73.64484 14197 ft 386 kts 43°
2026-05-05 13:32 42.44711 73.67276 14197 ft 386 kts 60°
2026-05-05 13:33 42.45728 73.70625 14186 ft 386 kts 77°
2026-05-05 13:33 42.45965 73.74226 14182 ft 385 kts 95°
2026-05-05 13:33 42.45402 73.77760 14187 ft 385 kts 112°
2026-05-05 13:33 42.44090 73.80907 14190 ft 385 kts 129°
2026-05-05 13:34 42.42151 73.83382 14188 ft 384 kts 147°
2026-05-05 13:34 42.39764 73.84957 14198 ft 383 kts 164°
2026-05-05 13:34 42.37135 73.85502 14195 ft 383 kts 181°
2026-05-05 13:34 42.34518 73.84964 14200 ft 382 kts 199°
2026-05-05 13:35 42.32074 73.83468 14199 ft 381 kts 210°
2026-05-05 13:35 42.29784 73.81659 14193 ft 381 kts 211°
2026-05-05 13:35 42.27474 73.79897 14198 ft 381 kts 207°
2026-05-05 13:35 42.25049 73.78444 14147 ft 383 kts 200°
2026-05-05 13:36 42.22613 73.77046 14038 ft 380 kts 212°
2026-05-05 13:36 42.20578 73.74794 13955 ft 379 kts 229°
2026-05-05 13:36 42.19151 73.71836 13871 ft 377 kts 247°
2026-05-05 13:36 42.18464 73.68488 13783 ft 376 kts 264°
2026-05-05 13:37 42.18569 73.64939 13698 ft 376 kts 282°
2026-05-05 13:37 42.19462 73.61649 13610 ft 376 kts 300°
2026-05-05 13:37 42.21066 73.58875 13527 ft 376 kts 317°
2026-05-05 13:37 42.23218 73.56898 13452 ft 377 kts 335°
2026-05-05 13:38 42.25726 73.55894 13367 ft 378 kts 353°
2026-05-05 13:38 42.28344 73.55985 13389 ft 379 kts 11°
2026-05-05 13:38 42.30821 73.57135 13775 ft 381 kts 24°
2026-05-05 13:38 42.33223 73.58704 14189 ft 383 kts 26°
2026-05-05 13:39 42.35643 73.60237 14564 ft 386 kts 22°
2026-05-05 13:39 42.38181 73.61440 14925 ft 387 kts 14°
2026-05-05 13:39 42.40848 73.61932 15312 ft 388 kts 358°
2026-05-05 13:39 42.43539 73.61550 15687 ft 391 kts 351°
2026-05-05 13:40 42.46231 73.60906 15968 ft 393 kts 349°
2026-05-05 13:40 42.48940 73.60331 16121 ft 397 kts 352°
2026-05-05 13:40 42.51677 73.59920 16072 ft 395 kts 354°
2026-05-05 13:40 42.54407 73.59508 15770 ft 393 kts 352°
2026-05-05 13:41 42.57102 73.59019 15497 ft 390 kts 352°
2026-05-05 13:41 42.59792 73.58517 15221 ft 389 kts 352°
2026-05-05 13:41 42.62468 73.58053 14949 ft 387 kts 353°
2026-05-05 13:41 42.65104 73.57609 14683 ft 386 kts 352°
2026-05-05 13:42 42.67780 73.57143 14412 ft 379 kts 352°
2026-05-05 13:42 42.70376 73.56681 14142 ft 373 kts 352°
2026-05-05 13:42 42.72907 73.56237 14077 ft 360 kts 352°
2026-05-05 13:42 42.75346 73.55813 14065 ft 347 kts 352°
2026-05-05 13:43 42.77696 73.55450 14057 ft 334 kts 358°
2026-05-05 13:43 42.79933 73.55877 14078 ft 318 kts 20°
2026-05-05 13:43 42.81772 73.57292 14047 ft 294 kts 41°
2026-05-05 13:43 42.83102 73.59393 14062 ft 289 kts 60°
2026-05-05 13:44 42.83841 73.61752 14052 ft 262 kts 71°
2026-05-05 13:44 42.84238 73.63286 14023 ft 247 kts 71°
2026-05-05 13:44 42.84794 73.65483 14034 ft 247 kts 71°
2026-05-05 13:44 42.85351 73.67687 14031 ft 246 kts 71°
2026-05-05 13:45 42.85918 73.69922 13628 ft 254 kts 71°
2026-05-05 13:45 42.86505 73.72233 12836 ft 262 kts 71°
2026-05-05 13:45 42.87105 73.74604 12099 ft 266 kts 71°
2026-05-05 13:45 42.87712 73.77003 11367 ft 269 kts 71°
2026-05-05 13:46 42.88323 73.79417 10654 ft 270 kts 71°
2026-05-05 13:46 42.88937 73.81848 9955 ft 271 kts 71°
2026-05-05 13:46 42.89549 73.84276 9184 ft 271 kts 71°
2026-05-05 13:46 42.90162 73.86707 8414 ft 271 kts 71°
2026-05-05 13:47 42.90772 73.89128 7678 ft 270 kts 71°
2026-05-05 13:47 42.91380 73.91546 6948 ft 269 kts 71°
2026-05-05 13:47 42.91984 73.93952 6318 ft 265 kts 71°
2026-05-05 13:47 42.92566 73.96270 6014 ft 248 kts 71°
2026-05-05 13:48 42.93097 73.98388 5997 ft 225 kts 71°
2026-05-05 13:48 42.93553 74.00398 5996 ft 223 kts 81°
2026-05-05 13:48 42.93773 74.02471 5953 ft 223 kts 81°
2026-05-05 13:48 42.94024 74.04535 5783 ft 220 kts 80°
2026-05-05 13:49 42.94270 74.06592 5646 ft 219 kts 81°
2026-05-05 13:49 42.94507 74.08645 5507 ft 219 kts 81°
2026-05-05 13:49 42.94743 74.10696 5381 ft 219 kts 81°
2026-05-05 13:49 42.94979 74.12742 5250 ft 218 kts 81°
2026-05-05 13:50 42.95216 74.14787 5136 ft 218 kts 81°
2026-05-05 13:50 42.95451 74.16827 5006 ft 218 kts 81°
2026-05-05 13:50 42.95685 74.18867 4890 ft 217 kts 81°
2026-05-05 13:50 42.95919 74.20905 4767 ft 217 kts 81°
2026-05-05 13:51 42.96153 74.22940 4641 ft 217 kts 81°
2026-05-05 13:51 42.96386 74.24975 4519 ft 217 kts 81°
2026-05-05 13:51 42.96617 74.27008 4544 ft 218 kts 81°
2026-05-05 13:51 42.96850 74.29043 4550 ft 218 kts 81°
2026-05-05 13:52 42.97082 74.31083 4554 ft 217 kts 81°
2026-05-05 13:52 42.97314 74.33121 4555 ft 217 kts 81°
2026-05-05 13:52 42.97546 74.35159 4558 ft 217 kts 81°
2026-05-05 13:52 42.97777 74.37194 4549 ft 217 kts 81°
2026-05-05 13:53 42.98007 74.39231 4552 ft 217 kts 81°
2026-05-05 13:53 42.98237 74.41271 4553 ft 217 kts 81°
2026-05-05 13:53 42.98468 74.43310 4555 ft 217 kts 81°
2026-05-05 13:53 42.98697 74.45348 4556 ft 217 kts 81°
2026-05-05 13:54 42.98933 74.47446 4573 ft 235 kts 81°
2026-05-05 13:54 42.99183 74.49679 4567 ft 240 kts 81°
2026-05-05 13:54 42.99438 74.51951 4565 ft 242 kts 81°
2026-05-05 13:54 42.99693 74.54233 4560 ft 243 kts 81°
2026-05-05 13:55 42.99948 74.56514 4565 ft 243 kts 81°
2026-05-05 13:55 43.00202 74.58801 4557 ft 243 kts 81°
2026-05-05 13:55 43.00457 74.61086 4560 ft 243 kts 81°
2026-05-05 13:55 43.00709 74.63365 4560 ft 243 kts 81°
2026-05-05 13:56 43.00962 74.65647 4549 ft 243 kts 81°
2026-05-05 13:56 43.01239 74.67929 4551 ft 244 kts 75°
2026-05-05 13:56 43.02054 74.69918 4542 ft 242 kts 43°
2026-05-05 13:56 43.03498 74.71028 4547 ft 240 kts 11°
2026-05-05 13:57 43.05147 74.70952 4537 ft 240 kts 340°
2026-05-05 13:57 43.06508 74.69737 4450 ft 236 kts 309°
2026-05-05 13:57 43.07325 74.67811 4382 ft 235 kts 295°
2026-05-05 13:57 43.08015 74.65790 4301 ft 234 kts 291°
2026-05-05 13:58 43.08365 74.63636 4213 ft 234 kts 266°
2026-05-05 13:58 43.08042 74.61455 4142 ft 234 kts 256°
2026-05-05 13:58 43.07638 74.59312 4067 ft 231 kts 258°
2026-05-05 13:58 43.07331 74.57153 3999 ft 230 kts 259°
2026-05-05 13:59 43.06845 74.53908 3318 ft 199 kts 256°
2026-05-05 13:59 43.06608 74.52280 2787 ft 192 kts 261°
2026-05-05 14:00 43.06262 74.48824 2075 ft 152 kts 258°
2026-05-05 14:00 43.06134 74.47791 2089 ft 71 kts 260°
2026-05-05 14:00 43.06082 74.47386 2090 ft 30 kts 262°
2026-05-05 14:00 43.06032 74.47136 2092 ft 16 kts 225°
2026-05-05 14:01 43.05957 74.47121 2093 ft 10 kts 176°
2026-05-05 14:01 43.05875 74.47134 2093 ft 13 kts 171°
2026-05-05 14:01 43.05773 74.47157 2092 ft 16 kts 171°
2026-05-05 14:01 43.05719 74.47217 2092 ft 6 kts 104°
2026-05-05 14:02 43.05698 74.47266 2092 ft 6 kts 136°
2026-05-05 14:02 43.05663 74.47315 2091 ft 9 kts 130°
2026-05-05 14:02 43.05622 74.47353 2091 ft 6 kts 156°
2026-05-05 14:02 43.05599 74.47362 2091 ft 0 kts 168°